Location: Bushey
(51.6333°N, 0.3667°W)
Time: 01:49:21
(UTC+00:00)

Meteor 1-13 Rocket - Pass Details

Date: 03 March 2021
Orbit: 830 x 913 km, 81.3° (Epoch: 11 April)

Event Time Altitude Azimuth Distance (km) Brightness Sun altitude
Rises 19:34:01 0° 347° (NNW) 3,561 7.8 -17.6°
Reaches altitude 10° 19:36:31 10° 348° (NNW) 2,613 7.0 -17.9°
Maximum altitude 19:42:31 83° 77° (ENE) 921 4.3 -18.8°
Drops below altitude 10° 19:48:24 10° 166° (SSE) 2,563 6.4 -19.7°
Enters shadow 19:48:36 - 166° (SSE) 2,639 6.5 -19.7°
